Find Starlink 1283

NORAD ID: 45389 Int'l Des: 2020-019 Owner: SPXS Country: US Constellation: starlink operational
LEOCIRCULAR

当前视图

正在加载3D地球...

About Starlink 1283

Starlink 1283 (NORAD 45389) is a starlink constellation satellite (v1.0) launched Mar 18, 2020 by SPXS of US. It operates in LEO, CIRCULAR orbit with a mass of 260.00 kg.

即将过境

Passes for default location (London). Set your location on the main map for personalized predictions.

高度历史

Loading altitude history...

两行轨道根数

1 45389U 20019AF 26264.00002315 .00110914 15572-4 37375-3 0 9990
2 45389 53.0262 219.6684 0005298 85.4256 139.6050 15.89920510 6032
Epoch: Sep 21, 2026 • Age: 6 hours

当前状态

高度 301.6 km
远地点 / 近地点 N/A
速度 7.73 km/s
星下点 23.48°N, 66.46°W
发射日期 Mar 18, 2020
运行时间 6.5 years
类型 internet

技术详情

分类 Payload
质量 260.00 kg
干质量 248.00 kg
长度 0.20 m
跨度 9.00 m
形状 ? Box + pan
制造商 SPXS
平台类型 Starlink
阶段状态 In Orbit
所有者/国家 SPXS/US

Most Searched